Location: Ostrava
(49.8330°N, 18.2830°E)
Time: 23:45:37
(UTC+02:00)

Envisat - Pass Details

Date: 20 January 2022
Orbit: 764 x 765 km, 98.2° (Epoch: 21 May)

Event Time Altitude Azimuth Distance (km) Brightness Sun altitude
Rises 05:38:14 0° 8° (N) 3,243 6.2 -18.3°
Reaches altitude 10° 05:40:39 10° 2° (N) 2,312 5.4 -18.0°
Maximum altitude 05:45:22 40° 294° (WNW) 1,117 3.4 -17.2°
Drops below altitude 10° 05:50:05 10° 226° (SW) 2,298 5.1 -16.5°
Sets 05:52:29 0° 219° (SW) 3,220 6.0 -16.1°
